EW1867 Weather Reports


Display with metric or nautical units.
time (UTC)temp
F
wind
direction
speed
MPH
gust
MPH
rain 1hr
in
rain 24hr
in
rain mn
in
humidity
%
barometer
mb
20260902212326 79 191 2.0 6.0 0.00 0.00 0.00 52 1015.4
20260902211426 79 211 2.0 6.0 0.00 0.00 0.00 52 1015.4
20260902205626 78 219 2.0 9.0 0.00 0.00 0.00 54 1015.7
20260902204726 78 187 2.0 9.0 0.00 0.00 0.00 55 1015.7
20260902203826 77 186 2.0 8.0 0.00 0.00 0.00 56 1015.8
20260902202926 78 111 2.0 7.0 0.00 0.00 0.00 55 1015.9
20260902202026 79 185 2.0 9.0 0.00 0.00 0.00 53 1016.1
20260902201126 78 204 2.0 7.0 0.00 0.00 0.00 55 1016.4
20260902200226 76 226 2.0 5.0 0.00 0.00 0.00 59 1016.4
20260902193526 78 217 2.0 6.0 0.00 0.00 0.00 57 1016.5
20260902192626 78 207 2.0 5.0 0.00 0.00 0.00 56 1016.7
20260902190826 77 222 3.0 6.0 0.00 0.00 0.00 57 1017.0
20260902185926 77 221 3.0 6.0 0.00 0.00 0.00 57 1016.9
20260902185026 78 201 1.0 5.0 0.00 0.00 0.00 56 1016.9
20260902183226 77 214 2.0 5.0 0.00 0.00 0.00 57 1017.0
20260902181426 78 224 2.0 3.0 0.00 0.00 0.00 57 1017.1
20260902180526 77 239 2.0 5.0 0.00 0.00 0.00 58 1017.1
20260902174726 76 223 2.0 6.0 0.00 0.00 0.00 59 1017.0
20260902173826 75 213 1.0 5.0 0.00 0.00 0.00 61 1016.9
20260902172926 75 214 2.0 5.0 0.00 0.00 0.00 61 1017.0
20260902172026 75 166 2.0 5.0 0.00 0.00 0.00 62 1017.0
20260902171126 73 148 2.0 5.0 0.00 0.00 0.00 63 1016.9
20260902170226 74 218 2.0 5.0 0.00 0.00 0.00 63 1016.8
20260902165326 73 219 2.0 5.0 0.00 0.00 0.00 65 1016.8
20260902164426 72 164 1.0 3.0 0.00 0.00 0.00 66 1016.7
20260902163526 70 165 1.0 5.0 0.00 0.00 0.00 69 1016.6
20260902161726 69 119 1.0 4.0 0.00 0.00 0.00 71 1016.6
20260902160826 68 139 1.0 3.0 0.00 0.00 0.00 72 1016.7
20260902155026 67 105 1.0 3.0 0.00 0.00 0.00 74 1016.7
20260902154126 66 105 1.0 3.0 0.00 0.00 0.00 75 1016.7
20260902153226 65 100 1.0 3.0 0.00 0.00 0.00 77 1016.8
20260902151426 63 102 1.0 3.0 0.00 0.00 0.00 80 1016.6
20260902150526 62 92 0.0 3.0 0.00 0.00 0.00 81 1016.5
20260902145626 62 0 0.0 1.0 0.00 0.00 0.00 81 1016.5
20260902144726 62 104 0.0 1.0 0.00 0.00 0.00 81 1016.3
20260902142926 61 104 1.0 3.0 0.00 0.00 0.00 82 1016.1
20260902142026 61 107 1.0 3.0 0.00 0.00 0.00 82 1016.0
20260902140226 60 0 0.0 1.0 0.00 0.00 0.00 83 1016.3
20260902135326 60 0 0.0 4.0 0.00 0.00 0.00 83 1016.1
20260902133526 60 0 0.0 3.0 0.00 0.00 0.00 83 1015.9
20260902132626 60 108 0.0 2.0 0.00 0.00 0.00 83 1015.8
20260902131726 60 0 0.0 2.0 0.00 0.00 0.00 84 1015.8
20260902130826 60 0 0.0 1.0 0.00 0.00 0.00 83 1015.7
20260902125926 60 0 0.0 1.0 0.00 0.00 0.00 83 1015.7
20260902125026 60 0 0.0 2.0 0.00 0.00 0.00 83 1015.6
20260902124126 60 106 1.0 2.0 0.00 0.00 0.00 83 1015.6
20260902123226 60 106 1.0 3.0 0.00 0.00 0.00 83 1015.7
20260902122326 60 99 0.0 2.0 0.00 0.00 0.00 83 1015.6
20260902121426 60 0 0.0 2.0 0.00 0.00 0.00 83 1015.6
20260902120526 60 105 1.0 3.0 0.00 0.00 0.00 83 1015.6
20260902115626 60 107 0.0 4.0 0.00 0.00 0.00 83 1015.6
20260902113826 60 0 0.0 3.0 0.00 0.00 0.00 83 1015.6
20260902112926 60 106 1.0 2.0 0.00 0.00 0.00 83 1015.4
20260902112026 60 107 1.0 3.0 0.00 0.00 0.00 83 1015.3
20260902111126 60 105 1.0 4.0 0.00 0.00 0.00 83 1015.4
20260902110226 60 105 1.0 3.0 0.00 0.00 0.00 82 1015.5
20260902105326 60 110 0.0 3.0 0.00 0.00 0.00 82 1015.6
20260902103526 60 0 0.0 2.0 0.00 0.00 0.00 82 1015.7
20260902102626 60 118 0.0 2.0 0.00 0.00 0.00 81 1015.8
20260902101726 60 115 1.0 3.0 0.00 0.00 0.00 81 1015.8
20260902100826 61 105 1.0 5.0 0.00 0.00 0.00 81 1015.9
20260902095926 61 117 1.0 4.0 0.00 0.00 0.00 81 1015.8
20260902095026 60 111 1.0 3.0 0.00 0.00 0.00 81 1015.8
20260902094126 61 113 1.0 3.0 0.00 0.00 0.00 80 1015.9
20260902092326 60 102 1.0 1.0 0.00 0.00 0.00 81 1015.9
20260902091426 60 105 1.0 5.0 0.00 0.00 0.00 80 1015.9
20260902090526 60 103 1.0 4.0 0.00 0.00 0.00 81 1015.9
20260902085626 60 102 1.0 2.0 0.00 0.00 0.00 81 1015.9
20260902084726 60 94 1.0 3.0 0.00 0.00 0.00 80 1015.9
20260902082926 61 101 1.0 4.0 0.00 0.00 0.00 80 1015.8
20260902082026 61 97 1.0 5.0 0.00 0.00 0.00 80 1015.8
20260902081126 61 102 1.0 5.0 0.00 0.00 0.00 80 1015.7
20260902080226 61 102 2.0 5.0 0.00 0.00 0.00 80 1015.7
20260902075326 61 101 2.0 6.0 0.00 0.00 0.00 79 1015.6
20260902074426 61 101 1.0 6.0 0.00 0.00 0.00 79 1015.5
20260902073526 61 119 1.0 5.0 0.00 0.00 0.00 79 1015.7
20260902072626 62 102 2.0 9.0 0.00 0.00 0.00 79 1015.5
20260902071726 62 103 2.0 6.0 0.00 0.00 0.00 78 1015.4
20260902070826 62 95 1.0 5.0 0.00 0.00 0.00 79 1015.4
20260902065926 62 102 1.0 3.0 0.00 0.00 0.00 79 1015.5
20260902065026 62 99 1.0 5.0 0.00 0.00 0.00 79 1015.4
20260902064126 62 109 1.0 5.0 0.00 0.00 0.00 79 1015.4
20260902063226 62 109 0.0 3.0 0.00 0.00 0.00 79 1015.4
20260902062326 62 109 0.0 2.0 0.00 0.00 0.00 78 1015.5
20260902061426 63 104 1.0 3.0 0.00 0.00 0.00 78 1015.5
20260902060526 63 0 0.0 3.0 0.00 0.00 0.00 77 1015.5
20260902055626 63 117 1.0 3.0 0.00 0.00 0.00 76 1015.7
20260902054726 63 110 0.0 3.0 0.00 0.00 0.00 75 1015.6
20260902053826 63 121 1.0 4.0 0.00 0.00 0.00 74 1015.6
20260902052926 64 116 0.0 2.0 0.00 0.00 0.00 73 1015.7
20260902052026 64 124 1.0 3.0 0.00 0.00 0.00 71 1015.6
20260902051126 64 126 1.0 3.0 0.00 0.00 0.00 71 1015.4
20260902050226 64 125 1.0 4.0 0.00 0.00 0.00 70 1015.4
20260902045326 65 166 1.0 3.0 0.00 0.00 0.00 70 1015.4
20260902044426 65 204 1.0 4.0 0.00 0.00 0.00 69 1015.4
20260902042626 66 191 1.0 5.0 0.00 0.00 0.00 68 1015.0
20260902041726 66 193 2.0 4.0 0.00 0.00 0.00 68 1014.9
20260902035926 67 212 2.0 5.0 0.00 0.00 0.00 66 1014.7
20260902035026 67 208 2.0 7.0 0.00 0.00 0.00 65 1014.4
20260902034126 67 212 3.0 6.0 0.00 0.00 0.00 65 1014.2
20260902033226 68 210 3.0 7.0 0.00 0.00 0.00 64 1014.0
20260902032326 68 203 2.0 8.0 0.00 0.00 0.00 63 1014.0
20260902031426 68 212 2.0 6.0 0.00 0.00 0.00 62 1013.8
20260902030526 69 214 2.0 7.0 0.00 0.00 0.00 61 1013.7
20260902025626 69 220 2.0 7.0 0.00 0.00 0.00 60 1013.6
20260902024726 70 212 2.0 7.0 0.00 0.00 0.00 59 1013.5
20260902023826 70 210 2.0 5.0 0.00 0.00 0.00 58 1013.5
20260902022926 70 223 2.0 6.0 0.00 0.00 0.00 57 1013.4
20260902022026 70 216 3.0 6.0 0.00 0.00 0.00 56 1013.3
20260902021126 71 215 3.0 8.0 0.00 0.00 0.00 56 1013.5
20260902020226 71 210 2.0 10.0 0.00 0.00 0.00 55 1013.4
20260902015326 72 215 2.0 6.0 0.00 0.00 0.00 54 1013.4
20260902012626 74 197 2.0 6.0 0.00 0.00 0.00 52 1013.3
20260902011726 74 224 2.0 6.0 0.00 0.00 0.00 51 1013.1
20260902010826 75 217 2.0 6.0 0.00 0.00 0.00 51 1013.1
20260902005926 75 201 2.0 5.0 0.00 0.00 0.00 50 1013.1
20260902004126 76 208 2.0 10.0 0.00 0.00 0.00 48 1013.0
20260902002326 77 209 3.0 7.0 0.00 0.00 0.00 46 1013.0
20260902001426 77 218 3.0 6.0 0.00 0.00 0.00 45 1013.0
20260902000526 78 221 2.0 6.0 0.00 0.00 0.00 45 1013.1
20260901235626 78 220 2.0 6.0 0.00 0.00 0.00 46 1013.2
20260901233826 78 123 2.0 7.0 0.00 0.00 0.00 46 1013.2
20260901232926 78 196 2.0 8.0 0.00 0.00 0.00 46 1013.2
20260901231126 78 153 2.0 5.0 0.00 0.00 0.00 44 1013.4
20260901230226 78 153 3.0 7.0 0.00 0.00 0.00 44 1013.5
20260901225326 78 214 2.0 7.0 0.00 0.00 0.00 44 1013.4
20260901224426 78 187 2.0 7.0 0.00 0.00 0.00 45 1013.4
20260901223526 77 127 3.0 9.0 0.00 0.00 0.00 46 1013.6
20260901222626 78 164 3.0 8.0 0.00 0.00 0.00 44 1013.7
20260901221726 77 107 2.0 6.0 0.00 0.00 0.00 47 1013.6
20260901220826 78 174 3.0 7.0 0.00 0.00 0.00 46 1013.8
20260901215926 77 113 2.0 7.0 0.00 0.00 0.00 48 1013.9
20260901215026 78 171 2.0 6.0 0.00 0.00 0.00 49 1013.8
20260901214126 77 217 3.0 9.0 0.00 0.00 0.00 48 1013.9
20260901213226 76 132 3.0 10.0 0.00 0.00 0.00 50 1013.9